Location: Newark
(52.2712°N, 35.2148°E)
Time: 16:30:52
(UTC+00:00)

Envisat - Visible Passes

Search period start: 26 September 2020 00:00
Search period end: 06 October 2020 00:00
Orbit: 764 x 766 km, 98.1° (Epoch: 26 September)

Date Brightness Start Highest point End Pass type
(mag) Time Alt. Az. Time Alt. Az. Time Alt. Az.
26 Sep 5.7 02:51:40 10° NE 02:55:53 25° E 03:00:04 10° SSE visible
27 Sep 6.4 02:16:13 10° NE 02:18:35 13° E 02:20:58 10° ESE visible
28 Sep 6.3 16:18:39 10° WSW 16:21:41 16° W 16:24:43 10° NW visible
29 Sep 6.0 02:40:33 10° NE 02:44:24 21° E 02:48:13 10° SE visible
30 Sep 6.7 02:06:04 10° ENE 02:07:02 10° E 02:08:00 10° E visible
01 Oct 5.1 03:05:30 10° NNE 03:10:06 33° E 03:14:40 10° SSE visible
01 Oct 6.1 16:06:35 10° SW 16:10:09 19° W 16:13:46 10° NW visible
02 Oct 6.1 02:29:32 10° NE 02:32:53 17° E 02:36:13 10° SE visible
03 Oct 6.6 16:34:11 10° WSW 16:36:00 12° W 16:37:49 10° WNW visible
04 Oct 5.5 02:54:18 10° NE 02:58:38 27° E 03:02:56 10° SSE visible
04 Oct 5.8 15:54:39 10° SW 15:58:40 23° W 16:02:42 10° NW visible
05 Oct 6.3 02:18:40 10° NE 02:21:22 14° E 02:24:02 10° ESE visible
